Regional Weather Roundup
Issued by NWS

Home | Current Version | Previous Version | Text Only | Print | Product List | Glossary On
Versions: 1 2 3 4 5 6 7 8 9 10 11 12 13 14 15 16 17 18 19 20 21 22 23 24 25 26 27 28 29 30 31 32 33 34 35 36 37 38 39 40 41 42 43 44 45 46 47 48 49 50
000
ASUS43 KMPX 190010
RWRMN
WEATHER ROUNDUP FOR MINNESOTA
NATIONAL WEATHER SERVICE TWIN CITIES/CHANHASSEN MN
700 PM CDT FRI APR 18 2014


NOTE: "FAIR" INDICATES FEW OR NO CLOUDS BELOW 12,000 FEET WITH NO
SIGNIFICANT WEATHER AND/OR OBSTRUCTIONS TO VISIBILITY. N/A MEANS
CURRENT SKY AND/OR WEATHER CONDITIONS ARE NOT AVAILABLE.

MNZ060>063-068>070-190100-
   Twin Cities Metro

CITY           SKY/WX    TMP DP  RH WIND       PRES   REMARKS
TWIN CITIES    CLOUDY    51  26  37 E20       30.23F
6HR MIN TEMP:  46; 6HR MAX TEMP:  52;

ST PAUL        CLOUDY    51  27  39 SE16      30.25F
CRYSTAL        CLOUDY    50  28  42 E12G23    30.21F
EDEN PRAIRIE   CLOUDY    52  30  43 SE17      30.21F
6HR MIN TEMP:  48; 6HR MAX TEMP:  53;

LAKEVILLE      MOCLDY    48  30  49 SE13G21   30.22F
SOUTH ST PAUL  CLOUDY    54  26  34 SE9       30.24F
LAKE ELMO      FAIR      50  28  43 E8        30.25F
$$
MNZ001>005-007-008-013>017-022>024-027-028-190100-
   Northwest Minnesota

CITY           SKY/WX    TMP DP  RH WIND       PRES   REMARKS
BEMIDJI        CLOUDY    45  22  41 SE21G26   30.15F
HALLOCK        CLOUDY    48  23  37 SE16      30.05F
ROSEAU         CLOUDY    48  19  32 SE17      30.12F
WARROAD        PTSUNNY   39  27  60 E9        30.15F
THIEF RVR FALL CLOUDY    46  25  42 E17       30.08F
CROOKSTON      CLOUDY    48  28  46 SE17      30.06F
FOSSTON        CLOUDY    45  25  45 SE15G24   30.10F
DETROIT LAKES  PTSUNNY   43  28  56 SE21G30   30.11F
MOORHEAD       CLOUDY    48  27  43 SE24G31   30.04F
PARK RAPIDS    CLOUDY    44  24  45 SE17      30.16R
$$
MNZ006-009>011-018-025>026-190100-
   North Central Minnesota

CITY           SKY/WX    TMP DP  RH WIND       PRES   REMARKS
BAUDETTE       MOSUNNY   45  16  31 E17G24    30.17F
FLAG ISLAND    MOSUNNY   41  16  36 E12G18    30.17F
INTL FALLS     SUNNY     43  12  28 SE12      30.24F
6HR MIN TEMP:  41; 6HR MAX TEMP:  46;

WASKISH        PTSUNNY   46  19  34 E15       30.17F
BIG FORK       MOSUNNY   46  16  29 SE12G21   30.22F
LONGVILLE      CLOUDY    45  19  36 SE7       30.20S
GRAND RAPIDS   CLOUDY    43  16  33 SE10G17   30.24S
CRANE LAKE     CLEAR     46  14  27 E3        30.28F
ORR            CLEAR     43   9  24 E5        30.24S
COOK           CLEAR     43  19  39 SE9       30.27S
$$
MNZ012-019>021-037-190100-
   Northeast Minnesota

CITY           SKY/WX    TMP DP  RH WIND       PRES   REMARKS
DULUTH         PTCLDY    36  19  50 E15       30.30F
6HR MIN TEMP:  35; 6HR MAX TEMP:  38;

ELY            CLEAR     41  21  45 SE13      30.29F
HIBBING        PTCLDY    42  18  37 SE15G22   30.27S
EVELETH        PTCLDY    39  19  45 SE13      30.30S
DULUTH HARBOR  CLEAR     32  28  86 NE13      30.35F WCI  22
TWO HARBORS    CLEAR     34  21  60 E10       30.33F WCI  26
SILVER BAY     CLEAR     32  25  74 E6        30.35F WCI  26
GRAND MARAIS     N/A     33  23  66 CALM      30.41F
G MARAIS ARPRT CLEAR     30  18  59 SE5       30.35S WCI  25
$$
MNZ029>031-032-039>041-046>048-054>057-064-190100-
   West Central Minnesota

CITY           SKY/WX    TMP DP  RH WIND       PRES   REMARKS
FERGUS FALLS   PTSUNNY   45  25  45 SE23G32   30.05F
WHEATON        MOSUNNY   50  37  62 E33G39    30.01F
MORRIS         SUNNY     48  36  61 E29       30.03F
ALEXANDRIA     MOSUNNY   44  29  55 SE22G30   30.13F
ELBOW LAKE     FAIR      45  30  56 SE24G36   30.06F
WADENA         PTSUNNY   41  27  56 SE16G23   30.16R
GLENWOOD       MOSUNNY   45  32  61 E23       30.13F
APPLETON       SUNNY     52  37  58 E24G31    30.03F
BENSON         MOSUNNY   48  36  61 SE18G29   30.08F
ORTONVILLE     MOSUNNY   48  37  66 SE23G33   29.99F
MADISON        MOSUNNY   55  43  62 SE22G29   30.01F
WILLMAR        FAIR      48  36  61 E21G28    30.13F
$$
MNZ033>034-036-042>043-049>051-058-059-190100-
   Central Minnesota

CITY           SKY/WX    TMP DP  RH WIND       PRES   REMARKS
ST CLOUD       CLOUDY    45  27  49 E9G20     30.19F
6HR MIN TEMP:  40; 6HR MAX TEMP:  46;

SAUK CENTRE    FAIR      44  29  56 E15       30.17S
PAYNESVILLE    SUNNY     46  29  52 E10       30.18S
AITKIN         CLOUDY    45  19  36 E8G18     30.22F
PINE RIVER     CLOUDY    43  27  52 SE16G24   30.22F
BRAINERD       CLOUDY    47  23  38 E10G23    30.21F
STAPLES        CLOUDY    41  25  52 SE8G20    30.18S
LONG PRAIRIE   FAIR      41  28  60 E14G21    30.18S
LITTLE FALLS   CLOUDY    41  27  56 E12G20    30.19F
LITCHFIELD     SUNNY     45  34  65 SE14      30.17F
BUFFALO        CLOUDY    47  29  50 E13G20    30.20F
MAPLE LAKE     CLOUDY    47  31  53 E12       30.19F
$$
MNZ037-044-045-052-053-190100-
   East Central Minnesota

CITY           SKY/WX    TMP DP  RH WIND       PRES   REMARKS
PRINCETON      CLOUDY    45  27  49 E12G20    30.23F
MORA           CLOUDY    41  21  45 E9        30.26F
CAMBRIDGE      CLOUDY    45  27  49 E7        30.22F
RUSH CITY      CLOUDY    44  21  39 E8        30.26F
MOOSE LAKE     MOCLDY    43  21  42 E7        30.26S
HINCKLEY       FAIR      43  23  45 E8        30.26F
CLOQUET        PTCLDY    36  18  48 E10G20    30.29S
MCGREGOR       CLOUDY    43  23  45 E10       30.25F
$$
MNZ071>073-080-081-089-090-097-098-190100-
   Southwest Minnesota

CITY           SKY/WX    TMP DP  RH WIND       PRES   REMARKS
MONTEVIDEO     SUNNY     50  39  66 SE21G26   30.06F
GRANITE FALLS  SUNNY     52  37  57 E18G24    30.08F
CANBY          MOSUNNY   58  39  50 SE17G25   30.00F
MARSHALL       MOSUNNY   61  36  39 SE18G28   30.03S
REDWOOD FALLS  SUNNY     56  36  47 SE24G33   30.08F
OLIVIA         MOSUNNY   50  36  57 SE16G24   30.10F
PIPESTONE      MOSUNNY   61  36  39 S20G25    29.99F
WINDOM         SUNNY     59  30  33 SE22      30.08F
WORTHINGTON    SUNNY     59  30  33 SE21G30   30.07F
JACKSON        SUNNY     59  28  31 SE20G28   30.10F
TRACY          SUNNY     58  36  42 SE20G25   30.04F
SLAYTON        SUNNY     57  34  42 SE22G30   30.04S
$$
MNZ065>067-074>077-082>085-091>093-190100-
   South Central Minnesota

CITY           SKY/WX    TMP DP  RH WIND       PRES   REMARKS
MANKATO        MOSUNNY   54  34  47 SE18      30.18F
NEW ULM        SUNNY     55  36  47 SE20G25   30.14F
ST JAMES       SUNNY     57  36  44 SE17G28   30.14F
FAIRMONT       SUNNY     57  30  35 SE18G30   30.15F
GLENCOE        MOSUNNY   52  32  46 E20G28    30.17F
FARIBAULT      PTCLDY    55  28  35 E9        30.22F
OWATONNA       CLEAR     54  34  47 SE15G23   30.21F
WASECA         MOSUNNY   54  36  50 SE17      30.21F
ALBERT LEA     CLEAR     55  30  38 SE13G23   30.20F
$$
MNZ078>079-086>088-094>096-190100-
   Southeast Minnesota

CITY           SKY/WX    TMP DP  RH WIND       PRES   REMARKS
ROCHESTER      PTCLDY    52  31  44 SE15      30.24S
6HR MIN TEMP:  46; 6HR MAX TEMP:  54;

RED WING       CLOUDY    52  28  40 SE8       30.24F
STANTON        PTCLDY    53  28  38 SE10G16   30.22F
DODGE CENTER   PTCLDY    55  32  41 SE14      30.23F
WINONA         CLOUDY    54  28  37 SE7       30.28F
AUSTIN         CLEAR     55  30  38 SE12      30.22F
PRESTON        CLEAR     54  29  39 E9        30.26S
$$
ABBREVIATIONS USED IN REMARKS
   TC - TEMPERATURES IN CELSIUS
  WCI - WIND CHILL INDEX
   HX - HEAT INDEX
  VSB - VISIBILITY
$$


USA.gov is the U.S. government's official web portal to all federal, state and local government web resources and services.